Regional Weather Roundup
Issued by NWS New Orleans/Baton Rouge, LA

Home | Current Version | Previous Version | Text Only | Print | Product List | Glossary On
Versions: 1 2 3 4 5 6 7 8 9 10 11 12 13 14 15 16 17 18 19 20 21 22 23 24 25 26 27 28 29 30 31 32 33 34 35 36 37 38 39 40 41 42 43 44 45 46 47 48 49 50
345
ASUS44 KLIX 051810
RWRLIX
NEW ORLEANS REGIONAL WEATHER ROUNDUP
NATIONAL WEATHER SERVICE NEW ORLEANS LA
1200 PM CST THU MAR 05 2015

NOTE: "FAIR" INDICATES FEW OR NO CLOUDS BELOW 12,000 FEET WITH NO
      SIGNIFICANT WEATHER AND/OR OBSTRUCTIONS TO VISIBILITY.
      SKY/WX - SKY CONDITION AND SIGNIFICANT WEATHER.
      TMP - AIR TEMPERATURE.     DP    - DEWPOINT TEMPERATURE.
      RH  - RELATIVE HUMIDITY.   PRES  - PRESSURE.
      HI  - HEAT INDEX.          WCI   - WIND CHILL INDEX.

*  THESE STATIONS ARE NOT NWS OR FAA STATIONS AND ARE NOT UNDER
   NWS QUALITY CONTROL.

LAZ038-040-048-061>063-065>067-069-051900-
SOUTHEAST LOUISIANA

CITY           SKY/WX    TMP DP  RH WIND       PRES   REMARKS
N.O. AUDUBON     N/A     44  41  88 MISG        N/A
6HR MIN TEMP:  42; 6HR MAX TEMP:  54; 6HR PCP:  0.02;

N.O. INTL ARPT CLOUDY    43  36  76 N22G29    30.26S
6HR MIN TEMP:  42; 6HR MAX TEMP:  51; 6HR PCP:  0.01;

N.O. LAKEFRONT CLOUDY    45  39  79 N24G33    30.27R
6HR MIN TEMP:  45; 6HR MAX TEMP:  56; 6HR PCP:  0.06;

SLIDELL        CLOUDY    42  37  82 N18G26    30.25S
6HR MIN TEMP:  41; 6HR MAX TEMP:  54; 6HR PCP: TRACE;

BATON ROUGE    CLOUDY    35  30  82 N12G22    30.35R WCI  27
6HR MIN TEMP:  35; 6HR MAX TEMP:  37; 6HR PCP:  0.05;

BOOTHVILLE     CLOUDY    53  46  77 N24G32    30.17S
6HR MIN TEMP:  49; 6HR MAX TEMP:  71; 6HR PCP: TRACE;

BELLE CHASSE   CLOUDY    45  36  70 N15G29    30.23R
6HR MIN TEMP:  44; 6HR MAX TEMP:  72; 6HR PCP:  0.02;

BOGALUSA*        N/A     40  34  81 N16G25    30.31  WCI  31
6HR MIN TEMP:  39; 6HR MAX TEMP:  46; 6HR PCP:  0.04;

GALLIANO*      CLOUDY    49  41  74 NW24G35   30.21F
6HR MIN TEMP:  46; 6HR MAX TEMP:  68;

NEW ROADS*     FLURRIES  32  28  85 N16G23    30.38S WCI  21
6HR MIN TEMP:  32; 6HR MAX TEMP:  36;

GONZALES*      DRIZZLE   38  36  94 N20G25    30.30S WCI  28
6HR MIN TEMP:  38; 6HR MAX TEMP:  40; 6HR PCP:  0.01;

HAMMOND*       CLOUDY    39  32  75 N17G28    30.33R WCI  30
HOUMA*         CLOUDY    45  37  76 N22G29    30.24R
PORT FOURCHON* CLOUDY    50  43  76 N29G41    30.22R

$$

MSZ070-080>082-051900-
SOUTHERN MISSISSIPPI

CITY           SKY/WX    TMP DP  RH WIND       PRES   REMARKS
MCCOMB         FLURRIES  32  27  81 N20G30    30.35R WCI  20
6HR MIN TEMP:  32; 6HR MAX TEMP:  36; 6HR PCP:  0.19;

GULFPORT       CLOUDY    43  38  82 N21G31    30.21R
6HR MIN TEMP:  43; 6HR MAX TEMP:  69; 6HR PCP:  0.01;

BILOXI         CLOUDY    45  41  87 N28G37    30.20R
                                      6HR PCP:  0.01;

PASCAGOULA     CLOUDY    46  39  76 N20G33    30.19R
6HR MIN TEMP:  46; 6HR MAX TEMP:  68; 6HR PCP: TRACE;

STENNIS ARPT*  CLOUDY    43  36  75 N20G31    30.24S

$$

COASTAL OBSERVATIONS
LAKE AND NEARSHORE STATIONS

STATION/POSITION TIME  TEMP    WIND        PRES    WAVE
                       AIR SEA DIR/SP/G            HT/PER
                 (UTC) (F)     (DEG/KT/KT) (MB)    (FT/S)
PASCAGOULA       1800   49     360/ 17/ 26 1021.4
WAVELAND YACHT   1800   43 59  350/ 25/ 29 1023.0
GRAND ISLE       1800   50 65  360/ 27/ 31 1022.3
SOUTHWEST PASS   1800   54 45  360/ 25/ 28 1021.2
NEW CANAL        1800   43     360/ 21/ 26 1025.1
SHELL BEACH      1800   44 62  340/ 24/ 27 1023.0

OFFSHORE STATIONS

STATION/POSITION TIME  TEMP    WIND        PRES    WAVE
                       AIR SEA DIR/SP/G            HT/PER
                 (UTC) (F)     (DEG/KT/KT) (MB)    (FT/S)
64 S DAUPHIN ISL 1652   57 71   10/ 21/ 25 1020.0    7/ 6

$$




USA.gov is the U.S. government's official web portal to all federal, state and local government web resources and services.